[[{"header":{"parameterUnit":"m.s-1","parameterCategory":1,"la1":30.2991,"la2":30.254,"lo1":-89.0895,"lo2":-89.0444,"dy":0.0017,"dx":0.0017,"nx":28,"ny":28,"refTime":"2025-03-17T21:00:00:Z","depth":0,"parameterNumber":2,"parameterNumberName":"U-component_of_WINDS"},"data":[0,0,0,0,0,0,0,0,0,0,0,0,0,0,0,0,0,0,0,0,0,0,0,0,0,0,0,0,0,0,0,0,0,0,0,0,0,0,0,0,0,0,0,0,0,0,0,0,0,0,0,0,0,0,0,0,0,0,-3.8997,-3.8998,0,-3.9118,-3.9119,-3.912,-3.9115,-3.9113,-3.9111,-3.911,-3.9234,-3.9238,-3.9243,0,0,0,0,0,0,0,0,0,0,0,0,0,-3.8764,-3.8769,-3.8997,-3.8998,-3.9,-3.9117,-3.9119,-3.9121,-3.9115,-3.9113,-3.9111,-3.9109,-3.9232,-3.9238,-3.9244,0,0,0,0,0,0,0,0,0,0,0,0,0,-3.8873,-3.877,-3.8997,-3.9011,-3.9014,-3.9117,-3.9119,-3.9121,-3.9115,-3.9113,-3.911,-3.9108,-3.923,-3.9237,-3.9244,-3.9341,0,0,-3.9267,-3.927,0,0,0,0,0,0,0,0,-3.8867,-3.8882,-3.9008,-3.901,-3.9013,-3.9098,-3.9083,-3.9195,-3.9116,-3.9077,-3.911,-3.9107,-3.9191,-3.9201,-3.9229,-3.9347,-3.9352,-3.9268,-3.9272,-3.9275,-3.9277,0,0,0,0,0,0,0,-3.886,-3.8877,-3.9045,-3.9009,-3.9013,-3.9013,-3.9025,-3.9104,-3.9147,-3.908,-3.908,-3.9094,-3.9192,-3.9222,-3.9232,-3.9354,-3.9267,-3.9274,-3.9278,-3.9281,-3.956,-3.9563,0,0,0,0,0,0,-3.8849,-3.887,-3.9041,-3.9048,-3.8932,-3.9019,-3.9033,-3.9074,-3.9146,-3.9154,-3.9096,-3.9094,-3.9211,-3.9224,-3.9237,-3.9356,-3.9275,-3.9282,-3.9286,-3.9557,-3.9561,-3.9564,0,0,0,0,0,0,-3.8844,-3.8864,-3.9036,-3.8959,-3.8981,-3.9026,-3.9071,-3.9077,-3.9108,-3.9158,-3.9166,-3.9119,-3.921,-3.9226,-3.9316,-3.936,-3.9285,-3.9292,-3.9554,-3.9559,-3.9563,-3.9593,0,0,0,0,0,0,-3.8837,-3.8862,-3.8898,-3.896,-3.8985,-3.9112,-3.9074,-3.9082,-3.9121,-3.9118,-3.9182,-3.919,-3.9209,-3.9305,-3.9323,-3.9368,-3.9298,-3.955,-3.9556,-3.9561,-3.9589,-3.9598,-3.9607,0,0,0,0,0,-3.8829,-3.8902,-3.89,-3.8921,-3.9031,-3.9114,-3.9129,-3.9149,-3.9124,-3.9161,-3.9195,-3.9188,-3.9353,-3.9314,-3.9335,-3.9383,-3.9547,-3.9554,-3.9561,-3.9585,-3.9597,-3.9607,0,0,0,0,0,0,-3.8842,-3.891,-3.8909,-3.9004,-3.9054,-3.9113,-3.916,-3.9161,-3.9218,-3.9214,-3.9237,-3.9251,-3.9341,-3.9372,-3.9327,-3.9482,-3.9447,-3.9458,-3.9458,-3.947,-3.9479,-3.9468,-3.9304,0,0,0,0,0,-3.8857,-3.8918,-3.8974,-3.9053,-3.9078,-3.9115,-3.9152,-3.9164,-3.9216,-3.9237,-3.9276,-3.9328,-3.9392,-3.9433,-3.9494,-3.9595,-3.9609,-3.9638,-3.9647,-3.9654,-3.9663,-3.972,-3.9734,-3.9587,-3.9586,-3.9586,0,0,-3.8886,-3.8931,-3.8968,-3.9057,-3.9096,-3.916,-3.9133,-3.9201,-3.9249,-3.9248,-3.9334,-3.9366,-3.9425,-3.9521,-3.9565,-3.9549,-3.9708,-3.9663,-3.9668,-3.9673,-3.9728,-3.9742,-3.9755,-3.9591,-3.959,-3.959,0,0,-3.8973,-3.9013,-3.9083,-3.9124,-3.9186,-3.9211,-3.9228,-3.9289,-3.931,-3.9398,-3.9399,-3.9457,-3.9566,-3.9609,-3.9645,-3.9753,-3.9749,-3.9772,-3.9819,-3.9874,-3.9885,-3.9896,-3.9934,-3.9948,-3.9781,-3.9782,-3.9782,0,-3.9001,-3.9097,-3.9119,-3.9188,-3.9228,-3.9232,-3.9304,-3.9343,-3.9422,-3.9449,-3.9431,-3.9569,-3.9609,-3.9716,-3.9743,-3.9772,-3.9793,-3.9763,-3.9882,-3.9893,-3.9903,-3.994,-3.9954,-3.9784,-3.9784,-3.9783,-3.9783,0,-3.9129,-3.9196,-3.9246,-3.9322,-3.9368,-3.9438,-3.9473,-3.9517,-3.9526,-3.9554,-3.9645,-3.9694,-3.9766,-3.9793,-3.9802,-3.9902,-3.989,-3.9877,-3.9842,-3.9919,-3.9954,-3.9968,-3.9787,-3.9786,-3.9786,-3.9785,0,0,-3.9223,-3.9314,-3.9332,-3.9367,-3.9438,-3.949,-3.9562,-3.9633,-3.9671,-3.9727,-3.9788,-3.9882,-3.9871,-3.9912,-3.9927,-3.9976,-4.0059,-3.9957,-3.9959,-3.9974,-4.0173,-4.0181,-4.0197,-4.0059,-4.0062,-4.0064,-4.0168,0,-3.9316,-3.9442,-3.9467,-3.9577,-3.964,-3.9647,-3.9711,-3.9761,-3.9791,-3.9849,-3.9882,-3.9948,-3.9929,-3.9954,-4.0003,-4.0038,-4.0099,-4.0032,-4.0116,-4.0119,-4.0099,-4.0216,-4.0224,-4.0319,-4.0182,-4.0184,-4.0186,0,-3.9439,-3.9499,-3.9616,-3.968,-3.9708,-3.9764,-3.9832,-3.9888,-3.9947,-3.9965,-4.0014,-4.0024,-4.0101,-4.0065,-4.0172,-4.0126,-4.0163,-4.0186,-4.0191,-4.0197,-4.0155,-4.0224,-4.035,-4.0364,-4.0208,-4.0206,-4.0204,0,-3.9495,-3.9605,-3.969,-3.972,-3.9798,-3.9837,-3.9871,-3.9928,-3.997,-4.0031,-4.0059,-4.0129,-4.0166,-4.022,-4.025,-4.0221,-4.0355,-4.0321,-4.0373,-4.0372,-4.0398,-4.0395,-4.053,-4.0425,-4.0425,-4.0424,-4.0424,0,-3.9595,-3.9666,-3.9716,-3.9768,-3.9849,-3.9878,-3.9958,-3.9992,-4.0043,-4.0102,-4.0114,-4.017,-4.0206,-4.0268,-4.0293,-4.0378,-4.0395,-4.0413,-4.0418,-4.041,-4.0408,-4.0433,-4.0426,-4.0428,-4.0427,-4.0427,-4.0426,0,-3.9669,-3.9706,-3.9798,-3.9865,-3.9884,-3.9941,-3.9999,-4.005,-4.0082,-4.0157,-4.0177,-4.0225,-4.0299,-4.0335,-4.0427,-4.0443,-4.054,-4.0542,-4.052,-4.0521,-4.057,-4.0565,-4.0724,-4.0746,-4.0627,-4.0629,-4.063,0,-3.9729,-3.9784,-3.9858,-3.9899,-3.9934,-4.0,-4.0044,-4.0076,-4.0121,-4.0195,-4.0238,-4.0313,-4.0374,-4.0492,-4.0536,-4.0607,-4.061,-4.0661,-4.062,-4.0612,-4.061,-4.0605,-4.0611,-4.0667,-4.0668,-4.0669,-4.067,0,-3.9832,-3.9848,-3.991,-3.998,-4.0032,-4.0089,-4.0145,-4.0178,-4.022,-4.027,-4.0346,-4.0394,-4.0489,-4.0563,-4.0638,-4.0674,-4.068,-4.0683,-4.0699,-4.069,-4.0675,-4.0684,-4.0538,-4.0678,-4.0678,-4.0677,-4.0677,-4.0676,-3.99,-3.995,-4.0011,-4.0081,-4.0127,-4.0179,-4.0231,-4.027,-4.0334,-4.0413,-4.0429,-4.051,-4.0572,-4.0673,-4.0712,-4.0777,-4.0766,-4.0788,-4.0793,-4.0798,-4.08,-4.0667,-4.0791,-4.0791,-4.0791,-4.0791,-4.079,0,-4.0003,-4.0043,-4.0107,-4.0185,-4.0241,-4.0243,-4.0306,-4.0353,-4.0423,-4.048,-4.0541,-4.063,-4.0703,-4.0754,-4.0829,-4.0871,-4.0876,-4.089,-4.0886,-4.0895,-4.0806,-4.0785,-4.0885,-4.0885,-4.0885,-4.0885,-4.0885,-4.0885,-4.0062,-4.0147,-4.0172,-4.0281,-4.0321,-4.04,-4.0436,-4.0485,-4.0531,-4.0629,-4.069,-4.0724,-4.078,-4.0859,-4.0927,-4.0941,-4.0967,-4.0981,-4.0995,-4.0911,-4.0901,-4.0891,-4.0871,-4.0987,-4.0987,-4.1078,-4.1078,-4.1079]},{"header":{"parameterUnit":"m.s-1","parameterCategory":1,"la1":30.2991,"la2":30.254,"lo1":-89.0895,"lo2":-89.0444,"dy":0.0017,"dx":0.0017,"nx":28,"ny":28,"refTime":"2025-03-17T21:00:00:Z","depth":0,"parameterNumber":3,"parameterNumberName":"V-component_of_WINDS"},"data":[0,0,0,0,0,0,0,0,0,0,0,0,0,0,0,0,0,0,0,0,0,0,0,0,0,0,0,0,0,0,0,0,0,0,0,0,0,0,0,0,0,0,0,0,0,0,0,0,0,0,0,0,0,0,0,0,0,0,4.5397,4.5398,0,4.5425,4.5425,4.5425,4.5454,4.5455,4.5455,4.5456,4.5479,4.5479,4.5479,0,0,0,0,0,0,0,0,0,0,0,0,0,4.5367,4.5368,4.5397,4.5398,4.5398,4.5425,4.5425,4.5426,4.5454,4.5455,4.5455,4.5456,4.5479,4.5479,4.5479,0,0,0,0,0,0,0,0,0,0,0,0,0,4.5386,4.5368,4.5397,4.5416,4.5418,4.5425,4.5425,4.5426,4.5454,4.5455,4.5456,4.5456,4.5479,4.5479,4.5479,4.5469,0,0,4.548,4.5481,0,0,0,0,0,0,0,0,4.5385,4.5387,4.5413,4.5415,4.5417,4.5437,4.5423,4.544,4.5454,4.544,4.5456,4.5456,4.5464,4.5466,4.5469,4.547,4.5471,4.5481,4.5481,4.5481,4.5481,0,0,0,0,0,0,0,4.5384,4.5386,4.5408,4.5413,4.5416,4.5422,4.5425,4.5426,4.5448,4.5442,4.5444,4.5447,4.5465,4.5469,4.547,4.5471,4.5481,4.5481,4.5481,4.5481,4.5466,4.5466,0,0,0,0,0,0,4.538,4.5385,4.5407,4.5409,4.5402,4.5422,4.5426,4.543,4.5448,4.5452,4.5446,4.5448,4.5468,4.547,4.5471,4.5461,4.5481,4.5481,4.5481,4.5467,4.5466,4.5466,0,0,0,0,0,0,4.5379,4.5382,4.5406,4.5398,4.5401,4.5422,4.5426,4.543,4.5434,4.5452,4.5456,4.5446,4.5469,4.5471,4.547,4.5462,4.5481,4.5482,4.5468,4.5467,4.5466,4.544,0,0,0,0,0,0,4.5378,4.5381,4.5378,4.5397,4.5402,4.5405,4.5426,4.543,4.5435,4.5437,4.5453,4.5456,4.5469,4.5469,4.547,4.5463,4.5482,4.5468,4.5467,4.5466,4.5442,4.5438,4.5436,0,0,0,0,0,4.5377,4.5368,4.5378,4.538,4.5398,4.5405,4.5407,4.5424,4.5434,4.5431,4.5443,4.5455,4.5463,4.5469,4.547,4.5463,4.5469,4.5468,4.5466,4.5443,4.5439,4.5436,0,0,0,0,0,0,4.5345,4.5371,4.5382,4.5379,4.539,4.541,4.5406,4.5419,4.5426,4.5428,4.5447,4.545,4.5448,4.5455,4.5461,4.5455,4.5468,4.5467,4.545,4.5446,4.5443,4.5441,4.5482,0,0,0,0,0,4.5338,4.5343,4.5364,4.536,4.5365,4.5385,4.5388,4.5401,4.5412,4.5416,4.5428,4.5437,4.5442,4.5445,4.545,4.5443,4.5447,4.5439,4.5436,4.5433,4.5432,4.543,4.5427,4.5461,4.5461,4.5461,0,0,4.5322,4.5337,4.5338,4.5354,4.5364,4.5367,4.5388,4.539,4.5393,4.5416,4.5417,4.5426,4.5438,4.5435,4.5434,4.5441,4.5424,4.5432,4.543,4.5429,4.5429,4.5425,4.5423,4.546,4.5461,4.5461,0,0,4.5297,4.5308,4.5307,4.5317,4.5333,4.5346,4.5346,4.5364,4.5372,4.5374,4.5392,4.5395,4.5402,4.541,4.5415,4.5396,4.5408,4.5397,4.538,4.5379,4.5376,4.5374,4.5367,4.5365,4.5395,4.5395,4.5395,0,4.5275,4.5283,4.5303,4.5306,4.5312,4.5336,4.5334,4.5342,4.5358,4.5361,4.537,4.5381,4.5391,4.5391,4.5386,4.5389,4.5389,4.5395,4.5375,4.5373,4.5371,4.5365,4.5362,4.5394,4.5394,4.5394,4.5394,0,4.5256,4.5261,4.5258,4.5275,4.5281,4.5281,4.5301,4.5305,4.5318,4.533,4.5332,4.5345,4.5354,4.5355,4.5366,4.5357,4.5361,4.5372,4.5385,4.5366,4.5361,4.5359,4.5392,4.5392,4.5393,4.5393,0,0,4.5208,4.524,4.5238,4.5247,4.5267,4.5271,4.5273,4.5284,4.5287,4.5297,4.5299,4.5306,4.5317,4.5323,4.5335,4.5334,4.5319,4.5345,4.5346,4.534,4.531,4.5302,4.5299,4.5327,4.5327,4.5327,4.5309,0,4.5186,4.5192,4.5212,4.5212,4.5217,4.5241,4.5242,4.5254,4.5266,4.5272,4.5285,4.529,4.5304,4.5308,4.5308,4.5321,4.5313,4.5322,4.5329,4.5329,4.5325,4.5296,4.5287,4.527,4.5307,4.5307,4.5307,0,4.5161,4.5173,4.5173,4.5196,4.5198,4.52,4.5212,4.5218,4.5232,4.5241,4.5249,4.5264,4.5267,4.528,4.5284,4.529,4.5294,4.5301,4.5301,4.5302,4.5316,4.5296,4.5265,4.5262,4.5304,4.5304,4.5304,0,4.5127,4.5143,4.5146,4.5153,4.5178,4.5179,4.5189,4.5205,4.5211,4.5221,4.5226,4.5236,4.5241,4.5248,4.5265,4.5273,4.5268,4.5282,4.5275,4.5274,4.5272,4.5272,4.524,4.5274,4.5274,4.5274,4.5275,0,4.51,4.51,4.5132,4.5133,4.5134,4.5157,4.5156,4.5169,4.5183,4.5187,4.5207,4.521,4.5233,4.5239,4.5252,4.5254,4.5256,4.5263,4.5267,4.5261,4.526,4.5264,4.5265,4.5274,4.5274,4.5274,4.5274,0,4.5062,4.5084,4.5089,4.5114,4.512,4.5119,4.514,4.5142,4.5157,4.5162,4.5165,4.5187,4.5195,4.5213,4.5225,4.5235,4.5233,4.5239,4.5228,4.5231,4.5223,4.5223,4.5192,4.519,4.5225,4.5224,4.5224,0,4.5044,4.5044,4.507,4.5076,4.5086,4.5094,4.5101,4.5124,4.513,4.5149,4.5149,4.5159,4.5168,4.518,4.5196,4.5206,4.5213,4.5202,4.5214,4.521,4.5213,4.5213,4.5214,4.5198,4.5198,4.5197,4.5197,0,4.5009,4.502,4.503,4.5045,4.5053,4.5065,4.5078,4.5081,4.5107,4.5113,4.5123,4.513,4.5144,4.5154,4.5167,4.5177,4.5191,4.5193,4.5192,4.5187,4.5181,4.5185,4.5221,4.5194,4.5194,4.5194,4.5194,4.5195,4.498,4.4983,4.5002,4.5013,4.5026,4.5038,4.5043,4.5059,4.5068,4.5083,4.5095,4.5104,4.512,4.5139,4.5148,4.5155,4.5162,4.516,4.516,4.5159,4.5157,4.518,4.5157,4.5157,4.5157,4.5157,4.5158,0,4.4947,4.4961,4.4972,4.4991,4.4999,4.5015,4.503,4.5036,4.5045,4.5059,4.5069,4.5081,4.5091,4.5109,4.5121,4.5123,4.513,4.5125,4.5125,4.5127,4.5149,4.515,4.5119,4.5119,4.5119,4.5119,4.5119,4.5119,4.4931,4.4936,4.495,4.4962,4.4976,4.4987,4.4994,4.5006,4.5018,4.5031,4.504,4.5053,4.5069,4.5083,4.5093,4.5098,4.5101,4.5094,4.5101,4.5122,4.5125,4.5129,4.5129,4.5095,4.5095,4.5079,4.5078,4.5078]}]]